| time (UTC) | temp C | wind direction | speed KPH | gust KPH | rain 1hr cm | rain 24hr cm | rain mn cm | humidity % | barometer mb |
| 20260904003044 | 30 | 101 | 0.0 | 0.0 | 0.00 | 0.00 | 0.00 | 64 | 1012.8 |
| 20260904001539 | 30 | 101 | 0.0 | 0.0 | 0.00 | 0.00 | 0.00 | 62 | 1012.6 |
| 20260904000035 | 31 | 101 | 0.0 | 0.0 | 0.00 | 0.00 | 0.00 | 60 | 1012.5 |
| 20260903234530 | 31 | 101 | 0.0 | 0.0 | 0.00 | 0.00 | 0.00 | 59 | 1012.3 |
| 20260903233026 | 32 | 101 | 0.0 | 0.0 | 0.00 | 0.00 | 0.00 | 58 | 1012.3 |
| 20260903231522 | 32 | 101 | 0.0 | 0.0 | 0.00 | 0.00 | 0.00 | 56 | 1012.1 |
| 20260903230017 | 32 | 101 | 0.0 | 0.0 | 0.00 | 0.00 | 0.00 | 56 | 1012.0 |
| 20260903224514 | 32 | 69 | 0.0 | 0.0 | 0.00 | 0.00 | 0.00 | 55 | 1012.0 |
| 20260903223013 | 33 | 89 | 0.0 | 0.0 | 0.00 | 0.00 | 0.00 | 54 | 1012.0 |
| 20260903221504 | 33 | 91 | 0.0 | 0.0 | 0.00 | 0.00 | 0.00 | 53 | 1012.0 |
| 20260903220108 | 33 | 92 | 0.0 | 0.0 | 0.00 | 0.00 | 0.00 | 52 | 1012.1 |
| 20260903214555 | 33 | 94 | 0.0 | 0.0 | 0.00 | 0.00 | 0.00 | 51 | 1012.1 |
| 20260903213051 | 35 | 360 | 0.0 | 0.0 | 0.00 | 0.00 | 0.00 | 47 | 1012.2 |
| 20260903211546 | 35 | 342 | 0.0 | 0.0 | 0.00 | 0.00 | 0.00 | 47 | 1012.2 |
| 20260903210042 | 35 | 36 | 0.0 | 0.0 | 0.00 | 0.00 | 0.00 | 47 | 1012.2 |
| 20260903204537 | 35 | 71 | 0.0 | 0.0 | 0.00 | 0.00 | 0.00 | 45 | 1012.4 |
| 20260903203035 | 35 | 164 | 0.0 | 0.0 | 0.00 | 0.00 | 0.00 | 46 | 1012.5 |
| 20260903201529 | 34 | 140 | 0.0 | 0.0 | 0.00 | 0.00 | 0.00 | 48 | 1012.7 |
| 20260903200038 | 33 | 59 | 0.0 | 0.0 | 0.00 | 0.00 | 0.00 | 45 | 1012.9 |
| 20260903194533 | 34 | 127 | 0.0 | 0.0 | 0.00 | 0.00 | 0.00 | 44 | 1012.9 |
| 20260903193015 | 33 | 113 | 0.0 | 0.0 | 0.00 | 0.00 | 0.00 | 45 | 1013.1 |
| 20260903191518 | 33 | 302 | 0.0 | 0.0 | 0.00 | 0.00 | 0.00 | 48 | 1013.3 |
| 20260903190009 | 35 | 302 | 0.0 | 0.0 | 0.00 | 0.00 | 0.00 | 43 | 1013.3 |
| 20260903184503 | 35 | 219 | 0.0 | 0.0 | 0.00 | 0.00 | 0.00 | 43 | 1013.5 |
| 20260903183119 | 35 | 317 | 0.0 | 0.0 | 0.00 | 0.00 | 0.00 | 41 | 1013.7 |
| 20260903181616 | 35 | 88 | 0.0 | 4.8 | 0.00 | 0.00 | 0.00 | 43 | 1013.9 |
| 20260903180050 | 36 | 313 | 0.0 | 0.0 | 0.00 | 0.00 | 0.00 | 40 | 1014.0 |
| 20260903174546 | 34 | 293 | 0.0 | 0.0 | 0.00 | 0.00 | 0.00 | 49 | 1014.2 |
| 20260903173042 | 35 | 350 | 0.0 | 0.0 | 0.00 | 0.00 | 0.00 | 47 | 1014.3 |
| 20260903171537 | 34 | 138 | 0.0 | 0.0 | 0.00 | 0.00 | 0.00 | 49 | 1014.5 |
| 20260903170036 | 35 | 123 | 0.0 | 0.0 | 0.00 | 0.00 | 0.00 | 47 | 1014.6 |
| 20260903164529 | 33 | 304 | 0.0 | 0.0 | 0.00 | 0.00 | 0.00 | 52 | 1014.9 |
| 20260903163024 | 33 | 298 | 0.0 | 0.0 | 0.00 | 0.00 | 0.00 | 48 | 1015.0 |
| 20260903161529 | 34 | 302 | 0.0 | 0.0 | 0.00 | 0.00 | 0.00 | 48 | 1015.1 |
| 20260903160020 | 33 | 290 | 0.0 | 0.0 | 0.00 | 0.00 | 0.00 | 50 | 1015.2 |
| 20260903154511 | 33 | 283 | 0.0 | 0.0 | 0.00 | 0.00 | 0.00 | 54 | 1015.4 |
| 20260903153008 | 33 | 61 | 0.0 | 0.0 | 0.00 | 0.00 | 0.00 | 53 | 1015.5 |
| 20260903151502 | 33 | 348 | 0.0 | 0.0 | 0.00 | 0.00 | 0.00 | 53 | 1015.5 |
| 20260903150059 | 32 | 306 | 0.0 | 0.0 | 0.00 | 0.00 | 0.00 | 54 | 1015.6 |
| 20260903144558 | 32 | 310 | 0.0 | 0.0 | 0.00 | 0.00 | 0.00 | 57 | 1015.6 |
| 20260903143050 | 32 | 303 | 0.0 | 0.0 | 0.00 | 0.00 | 0.00 | 61 | 1015.5 |
| 20260903141546 | 31 | 300 | 0.0 | 0.0 | 0.00 | 0.00 | 0.00 | 60 | 1015.4 |
| 20260903140041 | 31 | 300 | 0.0 | 0.0 | 0.00 | 0.00 | 0.00 | 64 | 1015.5 |
| 20260903134543 | 29 | 299 | 0.0 | 0.0 | 0.00 | 0.00 | 0.00 | 67 | 1015.4 |
| 20260903133039 | 28 | 299 | 0.0 | 0.0 | 0.00 | 0.00 | 0.00 | 67 | 1015.5 |
| 20260903131529 | 28 | 299 | 0.0 | 0.0 | 0.00 | 0.00 | 0.00 | 66 | 1015.7 |
| 20260903130024 | 27 | 181 | 0.0 | 0.0 | 0.00 | 0.00 | 0.00 | 59 | 1015.8 |
| 20260903124539 | 26 | 180 | 0.0 | 0.0 | 0.00 | 0.00 | 0.00 | 43 | 1016.0 |
| 20260903123015 | 24 | 179 | 0.0 | 0.0 | 0.00 | 0.00 | 0.00 | 1 | 1016.0 |
| 20260903121527 | 22 | 179 | 0.0 | 0.0 | 0.00 | 0.00 | 0.00 | 1 | 1015.8 |
| 20260903120008 | 21 | 179 | 0.0 | 0.0 | 0.00 | 0.00 | 0.00 | 1 | 1015.8 |
| 20260903114503 | 21 | 179 | 0.0 | 0.0 | 0.00 | 0.00 | 0.00 | 1 | 1015.7 |
| 20260903113059 | 21 | 179 | 0.0 | 0.0 | 0.00 | 0.00 | 0.00 | 1 | 1015.5 |
| 20260903111555 | 21 | 179 | 0.0 | 0.0 | 0.00 | 0.00 | 0.00 | 1 | 1015.2 |
| 20260903110050 | 21 | 179 | 0.0 | 0.0 | 0.00 | 0.00 | 0.00 | 1 | 1015.0 |
| 20260903104546 | 21 | 179 | 0.0 | 0.0 | 0.00 | 0.00 | 0.00 | 1 | 1014.9 |
| 20260903103043 | 21 | 179 | 0.0 | 0.0 | 0.00 | 0.00 | 0.00 | 1 | 1015.0 |
| 20260903101538 | 21 | 179 | 0.0 | 0.0 | 0.00 | 0.00 | 0.00 | 1 | 1015.0 |
| 20260903100034 | 21 | 179 | 0.0 | 0.0 | 0.00 | 0.00 | 0.00 | 1 | 1014.9 |
| 20260903094529 | 22 | 179 | 0.0 | 0.0 | 0.00 | 0.00 | 0.00 | 1 | 1015.0 |
| 20260903093024 | 22 | 179 | 0.0 | 0.0 | 0.00 | 0.00 | 0.00 | 1 | 1014.9 |
| 20260903091519 | 22 | 179 | 0.0 | 0.0 | 0.00 | 0.00 | 0.00 | 1 | 1014.8 |
| 20260903090016 | 22 | 179 | 0.0 | 0.0 | 0.00 | 0.00 | 0.00 | 1 | 1014.7 |
| 20260903084514 | 22 | 179 | 0.0 | 0.0 | 0.00 | 0.00 | 0.00 | 1 | 1014.8 |
| 20260903083009 | 22 | 179 | 0.0 | 0.0 | 0.00 | 0.00 | 0.00 | 1 | 1014.7 |
| 20260903081504 | 22 | 179 | 0.0 | 0.0 | 0.00 | 0.00 | 0.00 | 1 | 1014.7 |
| 20260903080106 | 22 | 179 | 0.0 | 0.0 | 0.00 | 0.00 | 0.00 | 1 | 1014.5 |
| 20260903074557 | 22 | 179 | 0.0 | 0.0 | 0.00 | 0.00 | 0.00 | 1 | 1014.4 |
| 20260903073109 | 22 | 179 | 0.0 | 0.0 | 0.00 | 0.00 | 0.00 | 4 | 1014.2 |
| 20260903071548 | 23 | 179 | 0.0 | 0.0 | 0.00 | 0.00 | 0.00 | 11 | 1014.0 |
| 20260903070046 | 23 | 179 | 0.0 | 0.0 | 0.00 | 0.00 | 0.00 | 17 | 1014.1 |
| 20260903064550 | 23 | 179 | 0.0 | 0.0 | 0.00 | 0.00 | 0.00 | 23 | 1014.0 |
| 20260903063040 | 23 | 179 | 0.0 | 0.0 | 0.00 | 0.00 | 0.00 | 29 | 1014.1 |
| 20260903061538 | 23 | 179 | 0.0 | 0.0 | 0.00 | 0.00 | 0.00 | 30 | 1014.3 |
| 20260903060036 | 23 | 179 | 0.0 | 0.0 | 0.00 | 0.00 | 0.00 | 36 | 1014.3 |
| 20260903054534 | 23 | 179 | 0.0 | 0.0 | 0.00 | 0.00 | 0.00 | 41 | 1014.3 |
| 20260903053031 | 23 | 179 | 0.0 | 0.0 | 0.00 | 0.00 | 0.00 | 46 | 1014.5 |
| 20260903051530 | 24 | 179 | 0.0 | 0.0 | 0.00 | 0.00 | 0.00 | 48 | 1014.3 |
| 20260903050028 | 24 | 179 | 0.0 | 0.0 | 0.00 | 0.00 | 0.00 | 49 | 1014.4 |
| 20260903044526 | 24 | 179 | 0.0 | 0.0 | 0.00 | 0.00 | 0.00 | 53 | 1014.4 |
| 20260903043023 | 25 | 179 | 0.0 | 0.0 | 0.00 | 0.00 | 0.00 | 56 | 1014.3 |
| 20260903041521 | 25 | 179 | 0.0 | 0.0 | 0.00 | 0.00 | 0.00 | 57 | 1014.2 |
| 20260903040023 | 25 | 179 | 0.0 | 0.0 | 0.00 | 0.00 | 0.00 | 60 | 1014.2 |
| 20260903034519 | 25 | 179 | 0.0 | 0.0 | 0.00 | 0.00 | 0.00 | 63 | 1014.1 |
| 20260903033013 | 25 | 179 | 0.0 | 0.0 | 0.00 | 0.00 | 0.00 | 64 | 1014.3 |
| 20260903031509 | 26 | 179 | 0.0 | 0.0 | 0.00 | 0.00 | 0.00 | 66 | 1014.4 |
| 20260903030110 | 26 | 179 | 0.0 | 0.0 | 0.00 | 0.00 | 0.00 | 66 | 1014.5 |
| 20260903024501 | 26 | 179 | 0.0 | 0.0 | 0.00 | 0.00 | 0.00 | 67 | 1014.6 |
| 20260903023106 | 26 | 179 | 0.0 | 0.0 | 0.00 | 0.00 | 0.00 | 67 | 1014.7 |
| 20260903021559 | 26 | 179 | 0.0 | 0.0 | 0.00 | 0.00 | 0.00 | 67 | 1014.8 |
| 20260903020057 | 26 | 179 | 0.0 | 0.0 | 0.00 | 0.00 | 0.00 | 68 | 1014.8 |
| 20260903014555 | 27 | 179 | 0.0 | 0.0 | 0.00 | 0.00 | 0.00 | 68 | 1014.8 |
| 20260903013050 | 27 | 179 | 0.0 | 0.0 | 0.00 | 0.00 | 0.00 | 69 | 1014.8 |
| 20260903011541 | 27 | 179 | 0.0 | 0.0 | 0.00 | 0.00 | 0.00 | 69 | 1014.8 |
| 20260903010039 | 27 | 179 | 0.0 | 0.0 | 0.00 | 0.00 | 0.00 | 69 | 1014.7 |
| 20260903004534 | 28 | 179 | 0.0 | 0.0 | 0.00 | 0.00 | 0.00 | 69 | 1014.5 |